Wind_Speed
7 5 4 2 1 1 2 4 6 6 6 6 5 5 6 8 8 9 9 9 9 9 9 10 10 10 11 12 11 10 10 10 10 11 11 10 10 10 10 10 10 10 10 9
7 5 5 5 4 4 5 5 4 5 6 6 6 7 7 6 7 9 9 9 9 9 9 10 10 11 11 11 11 10 10 10 10 10 11 11 10 10 10 10 10 9 9 10
8 7 6 7 6 7 6 6 5 5 6 8 7 8 7 5 5 6 7 8 9 9 9 9 10 11 11 11 11 10 10 10 11 11 11 11 11 11 11 11 11 10 10 10
10 9 9 9 8 7 7 6 6 7 6 7 8 9 10 9 7 5 5 7 8 9 9 9 10 10 10 10 10 11 11 11 12 12 11 11 11 12 12 12 11 11 11 11
12 11 11 11 10 9 8 7 8 8 7 7 8 8 11 11 10 6 6 7 8 9 10 10 10 11 11 10 10 10 11 11 12 13 12 12 12 13 13 13 12 12 12 12
14 12 13 13 11 11 10 9 7 6 7 7 7 7 11 12 12 9 7 8 9 9 10 11 11 11 11 11 11 10 11 11 12 13 13 13 13 13 14 14 13 12 13 13
14 13 13 11 11 11 10 9 8 7 8 8 8 8 11 12 11 11 11 9 9 10 11 12 12 12 12 12 11 11 11 12 12 13 13 14 14 14 14 14 14 14 14 14
13 12 12 13 12 11 11 10 10 8 7 8 8 9 11 12 11 12 11 10 9 11 12 13 13 13 13 13 12 12 12 12 13 13 13 14 14 14 14 15 15 15 15 15
13 13 14 13 13 13 12 11 10 10 10 9 10 10 11 11 11 12 13 12 11 11 13 13 13 13 14 14 14 13 13 13 14 14 14 15 15 16 16 16 17 17 17 17
15 15 14 15 14 14 14 12 10 11 11 11 13 12 12 11 12 12 13 13 13 12 13 14 14 14 14 15 15 15 15 15 15 15 16 16 17 17 17 18 18 18 18 18
16 16 14 13 13 13 13 13 12 12 12 12 12 13 14 14 14 15 14 13 13 13 13 14 14 14 14 15 16 16 15 16 16 17 17 17 18 19 18 19 19 19 19 19
18 16 15 14 14 14 14 14 14 13 14 13 13 14 14 13 13 15 15 15 15 15 16 16 15 15 15 16 17 17 17 17 17 18 18 18 19 20 20 20 21 20 20 20
19 19 16 15 14 14 15 15 14 12 13 14 13 15 15 15 15 14 15 17 17 17 17 17 16 17 17 17 17 17 18 19 19 19 19 20 20 21 21 22 21 21 21 21
20 20 18 16 15 13 13 14 14 13 14 16 17 17 16 16 16 16 17 18 18 18 18 18 18 18 18 18 18 18 19 20 20 20 21 21 21 22 23 23 23 23 23 23
21 20 20 19 16 14 13 14 13 13 15 17 16 17 17 15 16 16 18 19 19 19 19 19 19 19 19 19 19 20 21 21 22 22 22 23 23 24 24 25 24 25 25 25
21 21 20 19 17 16 14 15 15 14 15 17 16 16 14 14 17 18 19 20 21 21 21 21 21 21 20 20 21 22 22 23 23 23 24 25 25 25 26 26 26 26 27 27
22 22 21 19 18 17 18 16 16 16 16 16 18 18 16 18 19 20 20 21 22 22 23 22 22 22 22 22 23 23 24 24 25 25 26 26 26 27 27 27 27 28 28 28
23 23 21 20 19 21 19 18 18 16 15 17 20 20 20 21 21 21 21 23 24 24 24 24 23 23 24 24 25 25 27 27 27 28 28 29 28 28 28 28 29 29 29 28
24 24 23 21 21 21 20 19 18 18 18 18 20 21 20 22 23 24 24 25 25 25 26 26 25 26 26 26 27 27 28 28 28 29 29 29 29 29 29 30 30 30 29 29
24 24 23 23 22 21 19 19 19 19 22 22 20 21 22 24 25 26 26 26 26 25 26 26 26 26 26 27 28 28 29 29 29 29 30 30 29 29 29 29 30 31 31 31
25 24 24 23 22 22 21 21 21 21 23 23 23 24 25 25 26 27 28 28 27 27 26 26 26 26 27 28 29 30 30 31 30 31 30 30 30 29 29 30 30 31 31 31
26 26 25 24 24 24 25 24 25 25 25 24 25 25 26 26 27 28 29 29 28 27 27 27 27 28 29 30 30 30 31 31 31 31 30 30 30 30 31 31 31 31 31 31
26 26 26 26 26 27 27 27 26 26 27 27 28 28 28 28 29 29 29 29 29 29 29 28 29 29 30 30 30 31 32 31 31 31 31 32 32 32 32 33 33 32 32 32
27 27 27 27 27 28 28 28 27 28 28 28 29 28 28 28 29 29 29 30 31 31 31 30 30 31 31 32 32 32 33 32 32 32 32 33 33 34 34 34 34 33 33 33
29 28 29 29 29 28 28 28 28 29 29 29 29 29 28 28 28 29 30 31 31 31 31 32 32 33 33 33 33 34 34 34 33 34 34 34 34 34 35 35 35 34 34 33
29 29 30 31 30 29 28 27 27 28 28 29 29 28 29 29 29 30 30 30 31 31 32 33 34 34 34 34 35 35 34 34 34 34 34 35 35 35 35 35 34 34 33 32
Wind_Direction
172 197 213 220 191 202 274 280 307 323 317 311 316 322 320 335 352 1 1 359 1 4 8 10 9 9 11 12 11 11 15 19 19 18 16 18 18 16 16 16 19 17 15 13
194 228 239 212 215 238 242 255 281 316 316 317 323 319 314 325 348 355 352 354 357 360 3 4 5 3 6 10 12 14 15 17 16 14 12 11 11 10 9 6 6 6 6 4
215 228 241 240 228 241 246 244 257 284 303 311 306 304 309 313 322 340 348 348 353 356 356 354 357 359 2 5 6 7 10 10 9 7 4 3 2 0 358 359 358 357 356 355
221 231 240 242 233 236 237 256 259 267 271 289 300 303 313 324 321 322 339 337 344 349 352 352 353 353 356 357 359 2 5 4 2 1 359 356 354 354 352 353 352 350 348 348
223 226 233 239 231 234 236 245 249 262 267 270 286 296 305 315 323 314 329 328 331 338 340 342 345 345 346 348 350 354 355 353 352 354 353 350 348 348 348 346 345 346 344 342
228 230 235 235 229 240 239 243 257 269 271 282 285 286 294 304 312 313 315 315 325 331 327 329 333 335 336 337 339 341 343 343 342 344 347 348 346 344 345 343 340 339 338 338
232 232 238 241 230 235 237 240 257 282 293 291 288 276 282 291 298 309 313 315 318 320 321 324 326 325 325 327 328 330 331 333 336 337 339 340 340 339 339 339 337 334 332 333
240 242 237 236 235 234 235 232 246 264 272 274 267 269 277 284 294 304 305 304 306 312 314 319 322 320 319 319 321 322 324 327 329 330 330 331 331 330 330 331 331 329 327 326
226 239 242 238 234 232 233 232 233 257 265 275 269 265 269 282 287 302 305 306 305 306 309 314 317 315 314 315 316 316 317 319 321 323 324 323 323 323 323 323 323 324 323 321
225 230 234 243 240 238 234 225 238 250 264 263 267 274 268 279 284 293 298 303 299 302 307 313 315 314 312 312 314 314 314 313 314 316 319 320 319 318 318 318 319 319 319 318
229 231 233 235 237 234 236 234 241 247 255 260 263 269 277 281 283 292 294 294 296 301 303 307 311 313 311 309 309 312 311 311 311 311 313 314 316 315 314 316 316 315 315 316
230 230 228 236 237 238 236 234 234 246 253 250 257 268 271 278 287 291 290 290 291 296 300 303 307 309 308 306 306 308 308 309 310 309 309 310 312 311 310 311 312 311 311 312
230 232 227 228 235 242 243 237 234 242 256 256 255 266 271 276 277 280 286 288 290 291 296 300 301 303 303 304 304 304 304 305 305 305 306 307 308 308 307 307 306 304 306 307
231 231 231 226 230 239 239 237 233 242 250 255 258 259 262 273 281 288 287 286 287 290 294 295 299 300 300 302 302 302 302 302 303 303 304 304 305 305 303 302 301 301 302 303
232 233 235 230 226 237 236 241 241 244 251 259 264 265 265 270 276 282 284 284 286 289 291 295 297 299 300 300 300 300 300 300 301 301 301 302 303 302 301 301 301 300 301 302
233 231 231 234 228 234 242 243 245 246 252 262 269 270 271 275 278 280 282 284 288 288 290 292 296 297 298 299 299 299 300 300 300 300 299 299 299 300 299 300 301 301 301 302
234 234 231 232 235 240 238 239 247 248 251 261 270 268 270 273 275 281 282 286 291 294 295 294 295 294 294 296 297 298 299 299 299 298 297 297 297 298 299 299 299 300 300 300
234 236 232 233 236 244 246 247 247 249 251 254 260 263 262 269 274 279 283 286 291 293 293 293 294 293 293 294 295 296 297 298 297 298 298 297 297 298 298 298 298 298 299 300
236 236 235 235 243 249 251 250 246 251 254 254 258 263 265 266 272 276 280 284 287 291 292 292 292 291 291 292 293 294 296 296 296 296 297 297 298 299 299 299 299 299 299 300
238 237 234 236 241 247 254 254 256 257 259 261 261 264 266 270 274 280 284 286 288 290 291 290 290 291 291 291 292 294 294 294 294 295 296 296 297 297 298 299 299 300 299 299
237 238 237 237 243 248 249 252 254 255 257 261 265 267 269 273 276 281 284 287 289 290 290 290 291 290 291 291 292 293 294 294 294 294 295 295 295 297 298 298 299 299 299 299
242 240 238 237 241 247 251 253 254 257 260 262 266 270 272 275 277 279 282 285 289 290 290 291 291 291 291 292 293 294 295 295 294 293 293 294 296 297 298 298 299 299 299 300
243 243 242 243 246 248 252 254 255 260 264 266 268 270 273 276 278 278 280 284 287 290 291 292 294 296 294 295 296 296 296 295 293 293 293 294 294 296 296 297 297 298 298 298
240 240 242 246 249 252 255 258 258 260 264 268 271 273 274 275 277 279 282 284 287 289 289 290 293 294 295 295 295 295 295 294 293 292 292 293 294 295 295 296 297 297 297 297
237 240 241 246 251 254 258 258 259 263 266 269 272 275 276 276 278 280 282 284 287 288 289 290 292 293 293 294 295 295 294 292 291 291 291 293 294 295 295 295 295 296 297 297
237 241 244 247 252 255 259 261 263 265 266 268 271 275 277 280 281 282 283 285 287 288 289 291 293 293 293 294 295 295 293 292 290 290 291 292 294 295 295 295 294 294 296 297
Height
5913 5916 5916 5917 5919 5921 5921 5922 5921 5920 5919 5918 5916 5916 5915 5913 5913 5911 5910 5909 5908 5907 5906 5904 5902 5901 5900 5898 5897 5896 5894 5893 5892 5891 5890 5889 5887 5886 5885 5884 5882 5881 5880 5879
5913 5916 5916 5916 5918 5920 5921 5921 5921 5920 5919 5918 5916 5916 5914 5913 5913 5911 5911 5910 5909 5907 5906 5905 5903 5902 5901 5899 5898 5896 5895 5894 5893 5892 5891 5890 5888 5887 5886 5885 5883 5882 5880 5879
5912 5915 5915 5915 5918 5920 5920 5920 5920 5920 5919 5918 5917 5915 5913 5912 5911 5911 5911 5910 5909 5908 5907 5905 5904 5903 5901 5900 5899 5897 5896 5895 5894 5893 5891 5890 5889 5888 5886 5885 5884 5882 5881 5879
5911 5913 5914 5915 5916 5918 5919 5919 5918 5918 5919 5918 5917 5915 5912 5911 5910 5910 5910 5910 5909 5908 5907 5906 5904 5903 5902 5901 5899 5898 5897 5896 5895 5893 5892 5890 5889 5888 5886 5885 5884 5882 5880 5879
5909 5910 5912 5913 5915 5916 5916 5917 5917 5917 5916 5916 5915 5916 5913 5910 5909 5909 5909 5909 5909 5908 5907 5906 5905 5903 5902 5901 5899 5898 5897 5896 5895 5893 5892 5890 5889 5888 5886 5885 5883 5882 5880 5878
5905 5908 5910 5911 5912 5913 5915 5916 5916 5916 5915 5915 5915 5915 5913 5910 5910 5908 5908 5908 5908 5907 5906 5905 5904 5903 5901 5900 5899 5898 5897 5896 5895 5893 5891 5890 5889 5887 5886 5884 5883 5881 5880 5878
5904 5905 5907 5908 5910 5912 5914 5915 5916 5915 5914 5915 5915 5913 5912 5910 5910 5909 5909 5908 5907 5907 5906 5904 5903 5902 5901 5899 5898 5897 5896 5895 5894 5892 5891 5889 5888 5886 5885 5883 5882 5880 5879 5877
5901 5904 5905 5906 5907 5910 5911 5913 5914 5915 5915 5914 5913 5912 5911 5909 5909 5908 5907 5906 5906 5906 5904 5903 5902 5900 5899 5898 5897 5896 5895 5894 5892 5891 5890 5888 5887 5885 5884 5882 5880 5879 5877 5876
5900 5903 5903 5904 5905 5907 5908 5910 5912 5913 5911 5912 5911 5909 5909 5906 5907 5906 5906 5905 5904 5903 5903 5902 5900 5899 5897 5896 5895 5894 5893 5892 5890 5889 5888 5886 5885 5883 5882 5880 5878 5877 5875 5873
5897 5899 5901 5902 5903 5905 5906 5908 5910 5910 5910 5910 5910 5907 5905 5905 5904 5905 5905 5903 5902 5901 5900 5899 5898 5897 5895 5894 5893 5892 5890 5889 5888 5887 5886 5884 5882 5881 5879 5878 5876 5874 5872 5870
5893 5895 5898 5899 5900 5901 5904 5905 5905 5907 5908 5908 5907 5907 5904 5904 5903 5902 5902 5902 5900 5899 5898 5897 5896 5895 5893 5892 5890 5889 5888 5887 5885 5884 5882 5881 5880 5878 5876 5875 5873 5871 5869 5867
5889 5892 5894 5896 5897 5898 5900 5901 5903 5905 5904 5904 5904 5904 5900 5900 5900 5900 5900 5899 5898 5897 5896 5895 5893 5892 5891 5889 5888 5886 5885 5884 5882 5881 5879 5878 5876 5875 5873 5871 5869 5867 5865 5864
5885 5887 5889 5892 5895 5896 5896 5898 5900 5902 5901 5900 5902 5902 5899 5898 5896 5896 5897 5896 5895 5893 5892 5892 5891 5890 5888 5887 5885 5884 5882 5881 5879 5878 5876 5874 5873 5871 5869 5867 5865 5863 5861 5860
5882 5884 5886 5889 5890 5891 5892 5894 5896 5898 5898 5897 5897 5897 5896 5895 5893 5893 5893 5892 5892 5890 5889 5888 5887 5886 5885 5883 5882 5880 5879 5877 5875 5874 5872 5870 5869 5867 5865 5863 5861 5859 5857 5855
5877 5880 5881 5883 5885 5888 5889 5891 5893 5893 5894 5893 5892 5892 5891 5891 5891 5890 5889 5888 5888 5887 5885 5884 5884 5882 5881 5879 5878 5876 5875 5873 5872 5870 5868 5866 5864 5862 5860 5858 5856 5854 5852 5849
5872 5875 5877 5879 5881 5883 5885 5887 5888 5890 5891 5889 5888 5888 5886 5886 5887 5887 5886 5885 5884 5883 5881 5880 5879 5877 5876 5875 5874 5872 5870 5869 5867 5865 5863 5861 5859 5857 5855 5852 5850 5848 5846 5844
5868 5870 5873 5875 5878 5879 5881 5883 5884 5885 5886 5887 5885 5884 5884 5884 5883 5883 5882 5882 5880 5878 5877 5876 5874 5873 5871 5870 5869 5867 5865 5863 5862 5859 5857 5855 5853 5851 5849 5847 5844 5842 5839 5837
5864 5865 5868 5871 5874 5875 5878 5879 5880 5880 5881 5882 5881 5880 5880 5880 5879 5879 5878 5877 5876 5875 5873 5871 5869 5868 5866 5865 5863 5861 5860 5857 5855 5854 5851 5849 5847 5845 5843 5840 5838 5835 5833 5830
5859 5861 5864 5867 5869 5869 5872 5873 5875 5876 5876 5875 5876 5876 5875 5875 5874 5873 5873 5872 5871 5870 5868 5865 5864 5862 5861 5859 5857 5855 5853 5851 5849 5847 5845 5843 5840 5838 5836 5833 5831 5828 5825 5823
5854 5857 5860 5862 5864 5865 5867 5867 5869 5871 5870 5869 5870 5871 5871 5870 5870 5868 5867 5867 5866 5864 5862 5860 5858 5856 5855 5853 5851 5849 5847 5845 5842 5840 5838 5835 5833 5831 5829 5827 5824 5820 5818 5816
5850 5852 5854 5857 5858 5859 5861 5862 5864 5867 5865 5864 5864 5865 5865 5865 5865 5864 5862 5860 5859 5858 5857 5855 5852 5851 5849 5847 5845 5843 5841 5838 5835 5833 5831 5828 5826 5824 5822 5819 5816 5814 5811 5808
5844 5847 5849 5851 5853 5856 5854 5856 5858 5859 5858 5858 5859 5859 5859 5859 5859 5857 5856 5854 5853 5852 5850 5848 5846 5844 5842 5840 5838 5836 5833 5831 5828 5826 5824 5821 5819 5817 5814 5812 5809 5806 5803 5800
5838 5842 5843 5845 5848 5847 5847 5848 5850 5852 5853 5853 5853 5853 5853 5853 5852 5851 5849 5848 5846 5845 5843 5841 5839 5837 5835 5833 5830 5828 5826 5823 5821 5818 5816 5814 5811 5809 5807 5804 5801 5798 5795 5792
5832 5834 5836 5838 5839 5840 5840 5842 5844 5845 5846 5847 5847 5846 5846 5846 5845 5844 5843 5841 5839 5838 5836 5834 5832 5830 5828 5825 5823 5820 5818 5815 5813 5810 5808 5805 5803 5801 5798 5795 5792 5790 5787 5784
5824 5828 5829 5831 5833 5833 5834 5835 5837 5838 5839 5840 5840 5839 5839 5838 5838 5837 5835 5834 5832 5830 5829 5827 5824 5822 5819 5817 5814 5811 5809 5806 5804 5802 5799 5797 5794 5792 5789 5786 5784 5781 5778 5775
5817 5820 5823 5825 5826 5828 5828 5829 5831 5832 5833 5833 5833 5832 5832 5831 5830 5829 5828 5826 5825 5823 5821 5819 5816 5813 5810 5807 5805 5802 5800 5797 5795 5792 5790 5787 5785 5782 5780 5777 5774 5772 5769 5767